When you browse on this site, cookies collect data to enhance your experience and personalize the content and advertising you see.
Visit our Privacy Policy to learn more. By continuing to use the site, you agree to this use of cookies and data.
  • In Latvia
  • List of Countries
  • For 7 days
  • Water Temperature
  • Weather Map
  • Weather Widgets
  • user-avatar
    Login

    Hourly Weather Allentown

    Today, 18 October, Friday

    Time Temperature Precipitation Wind Pressure Humidity
    00:00 +9°C° 0 mm 5 mps 745 mmHg 69%
    01:00 +10°C° 0 mm 4 mps 746 mmHg 70%
    02:00 +10°C° 0 mm 4 mps 746 mmHg 71%
    03:00 +8°C° 0 mm 4 mps 747 mmHg 72%
    04:00 +8°C° 0 mm 4 mps 747 mmHg 74%
    05:00 +7°C° 0 mm 4 mps 748 mmHg 75%
    06:00 +7°C° 0 mm 4 mps 748 mmHg 77%
    07:00 +6°C° 0 mm 4 mps 749 mmHg 79%
    08:00 +7°C° 0 mm 4 mps 749 mmHg 73%
    09:00 +9°C° 0 mm 5 mps 750 mmHg 68%
    10:00 +10°C° 0 mm 5 mps 750 mmHg 62%
    11:00 +10°C° 0 mm 5 mps 750 mmHg 60%
    12:00 +11°C° 0 mm 6 mps 751 mmHg 58%
    13:00 +11°C° 0 mm 6 mps 751 mmHg 56%
    14:00 +12°C° 0 mm 5 mps 751 mmHg 57%
    15:00 +12°C° 0 mm 5 mps 751 mmHg 58%
    16:00 +11°C° 0 mm 4 mps 751 mmHg 59%
    17:00 +10°C° 0 mm 3 mps 752 mmHg 64%
    18:00 +8°C° 0 mm 3 mps 752 mmHg 69%
    19:00 +6°C° 0 mm 2 mps 753 mmHg 74%
    20:00 +6°C° 0 mm 2 mps 753 mmHg 76%
    21:00 +5°C° 0 mm 2 mps 754 mmHg 78%
    22:00 +6°C° 0 mm 1 mps 754 mmHg 80%
    23:00 +5°C° 0 mm 1 mps 754 mmHg 82%

    Tomorrow, 19 October, Saturday

    Time Temperature Precipitation Wind Pressure Humidity
    00:00 +5°C° 0 mm 1 mps 754 mmHg 83%
    01:00 +5°C° 0 mm 1 mps 754 mmHg 85%
    02:00 +4°C° 0 mm 1 mps 754 mmHg 85%
    03:00 +4°C° 0 mm 1 mps 754 mmHg 86%
    04:00 +4°C° 0 mm 1 mps 754 mmHg 86%
    05:00 +4°C° 0 mm 1 mps 754 mmHg 86%
    06:00 +4°C° 0 mm 1 mps 754 mmHg 86%
    07:00 +4°C° 0 mm 1 mps 755 mmHg 86%
    08:00 +7°C° 0 mm 1 mps 755 mmHg 77%
    09:00 +9°C° 0 mm 1 mps 755 mmHg 68%
    10:00 +12°C° 0 mm 2 mps 754 mmHg 59%
    11:00 +13°C° 0 mm 2 mps 754 mmHg 55%
    12:00 +14°C° 0 mm 2 mps 754 mmHg 51%
    13:00 +16°C° 0 mm 2 mps 753 mmHg 47%
    14:00 +15°C° 0 mm 2 mps 753 mmHg 52%
    15:00 +15°C° 0 mm 2 mps 752 mmHg 56%
    16:00 +14°C° 0 mm 2 mps 752 mmHg 60%
    17:00 +13°C° 0 mm 1 mps 752 mmHg 65%
    18:00 +11°C° 0 mm 1 mps 753 mmHg 70%
    19:00 +9°C° 0 mm 1 mps 753 mmHg 75%
    20:00 +9°C° 0 mm 1 mps 753 mmHg 76%
    21:00 +8°C° 0 mm 0 mps 753 mmHg 76%
    22:00 +8°C° 0 mm 0 mps 753 mmHg 77%
    23:00 +8°C° 0 mm 0 mps 753 mmHg 77%

    Day after tomorrow, 20 October, Sunday

    Time Temperature Precipitation Wind Pressure Humidity
    00:00 +8°C° 0 mm 0 mps 752 mmHg 78%
    01:00 +9°C° 0 mm 1 mps 752 mmHg 78%
    02:00 +9°C° 0 mm 1 mps 752 mmHg 79%
    03:00 +9°C° 0 mm 1 mps 752 mmHg 80%
    04:00 +9°C° 0 mm 1 mps 752 mmHg 81%
    05:00 +9°C° 0 mm 1 mps 752 mmHg 80%
    06:00 +10°C° 0 mm 1 mps 752 mmHg 80%
    07:00 +10°C° 0 mm 1 mps 752 mmHg 79%
    08:00 +10°C° 0 mm 1 mps 752 mmHg 79%
    09:00 +11°C° 0 mm 1 mps 753 mmHg 78%
    10:00 +12°C° 0 mm 1 mps 753 mmHg 77%
    11:00 +13°C° 0 mm 1 mps 753 mmHg 73%
    12:00 +15°C° 0 mm 1 mps 752 mmHg 69%
    13:00 +16°C° 0 mm 2 mps 752 mmHg 64%
    14:00 +16°C° 0 mm 2 mps 752 mmHg 66%
    15:00 +16°C° 0 mm 1 mps 752 mmHg 67%
    16:00 +16°C° 0 mm 1 mps 752 mmHg 68%
    17:00 +14°C° 0 mm 1 mps 752 mmHg 75%
    18:00 +13°C° 0 mm 1 mps 753 mmHg 82%
    19:00 +11°C° 0 mm 1 mps 753 mmHg 89%
    20:00 +10°C° 0 mm 1 mps 753 mmHg 89%
    21:00 +10°C° 0 mm 1 mps 754 mmHg 90%
    22:00 +9°C° 0 mm 1 mps 754 mmHg 91%
    23:00 +9°C° 0 mm 1 mps 754 mmHg 91%

    21 October, Monday

    Time Temperature Precipitation Wind Pressure Humidity
    00:00 +9°C° 0 mm 1 mps 754 mmHg 91%
    01:00 +9°C° 0 mm 1 mps 754 mmHg 91%
    02:00 +8°C° 0 mm 1 mps 754 mmHg 91%
    03:00 +8°C° 0 mm 1 mps 754 mmHg 91%
    04:00 +8°C° 0 mm 1 mps 755 mmHg 91%
    05:00 +8°C° 0 mm 1 mps 755 mmHg 91%
    06:00 +9°C° 0 mm 1 mps 755 mmHg 90%
    07:00 +9°C° 0 mm 1 mps 755 mmHg 90%
    08:00 +11°C° 0 mm 1 mps 755 mmHg 82%
    09:00 +13°C° 0 mm 1 mps 755 mmHg 73%
    10:00 +16°C° 0 mm 2 mps 755 mmHg 65%
    11:00 +17°C° 0 mm 2 mps 755 mmHg 61%
    12:00 +18°C° 0 mm 2 mps 755 mmHg 58%
    13:00 +19°C° 0 mm 2 mps 754 mmHg 55%
    14:00 +19°C° 0 mm 2 mps 754 mmHg 59%
    15:00 +18°C° 0 mm 2 mps 754 mmHg 63%
    16:00 +18°C° 0 mm 2 mps 754 mmHg 67%
    17:00 +16°C° 0 mm 3 mps 754 mmHg 72%
    18:00 +14°C° 0 mm 3 mps 754 mmHg 78%
    19:00 +12°C° 0 mm 3 mps 754 mmHg 84%
    20:00 +13°C° 0 mm 2 mps 754 mmHg 87%
    21:00 +12°C° 0 mm 2 mps 754 mmHg 90%
    22:00 +12°C° 0 mm 2 mps 753 mmHg 93%
    23:00 +13°C° 0 mm 2 mps 753 mmHg 91%

    22 October, Tuesday

    Time Temperature Precipitation Wind Pressure Humidity
    00:00 +13°C° 0 mm 2 mps 753 mmHg 90%
    01:00 +14°C° 0 mm 2 mps 752 mmHg 89%
    02:00 +14°C° 0 mm 2 mps 752 mmHg 90%
    03:00 +14°C° 0 mm 2 mps 751 mmHg 91%
    04:00 +14°C° 0 mm 2 mps 751 mmHg 92%
    05:00 +14°C° 0 mm 2 mps 750 mmHg 93%
    06:00 +14°C° 0 mm 2 mps 750 mmHg 93%
    07:00 +14°C° 0 mm 2 mps 749 mmHg 94%
    08:00 +15°C° 0.1 mm 2 mps 749 mmHg 93%
    09:00 +15°C° 0.1 mm 2 mps 748 mmHg 93%
    10:00 +15°C° 0.1 mm 2 mps 747 mmHg 92%
    11:00 +15°C° 0.6 mm 2 mps 747 mmHg 93%
    12:00 +16°C° 0.6 mm 1 mps 746 mmHg 94%
    13:00 +16°C° 0.6 mm 1 mps 745 mmHg 95%
    14:00 +15°C° 0.4 mm 1 mps 745 mmHg 95%
    15:00 +15°C° 0.4 mm 2 mps 744 mmHg 96%
    16:00 +15°C° 0.4 mm 2 mps 744 mmHg 96%
    17:00 +13°C° 0.5 mm 3 mps 744 mmHg 93%
    18:00 +13°C° 0.5 mm 3 mps 744 mmHg 89%
    19:00 +12°C° 0.5 mm 4 mps 744 mmHg 85%
    20:00 +11°C° 0 mm 4 mps 745 mmHg 84%
    21:00 +9°C° 0 mm 5 mps 746 mmHg 82%
    22:00 +8°C° 0 mm 5 mps 747 mmHg 81%
    23:00 +7°C° 0 mm 5 mps 747 mmHg 81%

    23 October, Wednesday

    Time Temperature Precipitation Wind Pressure Humidity
    00:00 +7°C° 0 mm 4 mps 747 mmHg 81%
    01:00 +6°C° 0 mm 4 mps 747 mmHg 80%
    02:00 +6°C° 0 mm 4 mps 748 mmHg 81%
    03:00 +5°C° 0 mm 4 mps 748 mmHg 81%
    04:00 +5°C° 0 mm 4 mps 749 mmHg 82%
    05:00 +5°C° 0 mm 4 mps 749 mmHg 81%
    06:00 +5°C° 0 mm 4 mps 750 mmHg 80%
    07:00 +5°C° 0 mm 4 mps 750 mmHg 80%
    08:00 +7°C° 0 mm 5 mps 751 mmHg 73%
    09:00 +8°C° 0 mm 5 mps 751 mmHg 67%
    10:00 +10°C° 0 mm 6 mps 751 mmHg 60%
    11:00 +11°C° 0 mm 6 mps 752 mmHg 58%
    12:00 +12°C° 0 mm 5 mps 752 mmHg 56%
    13:00 +13°C° 0 mm 5 mps 752 mmHg 54%
    14:00 +13°C° 0 mm 4 mps 752 mmHg 55%
    15:00 +13°C° 0 mm 4 mps 753 mmHg 57%
    16:00 +13°C° 0 mm 3 mps 753 mmHg 58%
    17:00 +11°C° 0 mm 3 mps 753 mmHg 62%
    18:00 +10°C° 0 mm 2 mps 754 mmHg 65%
    19:00 +8°C° 0 mm 2 mps 755 mmHg 69%
    20:00 +8°C° 0 mm 1 mps 755 mmHg 70%
    21:00 +8°C° 0 mm 1 mps 755 mmHg 71%
    22:00 +8°C° 0 mm 1 mps 756 mmHg 71%
    23:00 +7°C° 0 mm 1 mps 756 mmHg 71%
    Show more